Time,TemperatureF,DewpointF,PressureIn,WindDirection,WindDirectionDegrees,WindSpeedMPH,WindSpeedGustMPH,Humidity,HourlyPrecipIn,Conditions,Clouds,dailyrainin,SoftwareType,DateUTC
2013-04-10 00:00:00,70.8,56.7,30.00,SW,223,6.0,8.0,61,0.00,,CLR,0.00,VWS V14.01,2013-04-10 04:00:00,
2013-04-10 00:05:00,70.8,56.7,30.00,SW,229,7.0,8.0,61,0.00,,CLR,0.00,VWS V14.01,2013-04-10 04:05:00,
2013-04-10 00:10:00,70.8,56.7,29.99,SW,219,5.0,8.0,61,0.00,,CLR,0.00,VWS V14.01,2013-04-10 04:10:00,
2013-04-10 00:15:00,70.7,57.1,29.99,South,173,7.0,8.0,62,0.00,,CLR,0.00,VWS V14.01,2013-04-10 04:15:00,
2013-04-10 00:20:00,70.5,56.9,29.99,SSE,167,5.0,8.0,62,0.00,,CLR,0.00,VWS V14.01,2013-04-10 04:20:00,
2013-04-10 00:25:00,70.5,56.9,29.99,South,190,9.0,9.0,62,0.00,,CLR,0.00,VWS V14.01,2013-04-10 04:25:00,
2013-04-10 00:30:00,70.4,56.8,29.99,South,182,5.0,6.0,62,0.00,,CLR,0.00,VWS V14.01,2013-04-10 04:30:00,
2013-04-10 00:35:00,70.3,57.1,29.98,South,170,5.0,9.0,63,0.00,,CLR,0.00,VWS V14.01,2013-04-10 04:35:00,
2013-04-10 00:40:00,70.3,56.7,29.98,South,185,7.0,9.0,62,0.00,,CLR,0.00,VWS V14.01,2013-04-10 04:40:00,
2013-04-10 00:45:00,70.2,57.0,29.98,SSW,197,5.0,9.0,63,0.00,,CLR,0.00,VWS V14.01,2013-04-10 04:45:00,
2013-04-10 00:50:00,70.0,56.8,29.99,South,183,4.0,11.0,63,0.00,,CLR,0.00,VWS V14.01,2013-04-10 04:50:00,
2013-04-10 00:55:00,69.7,57.0,29.99,SSW,209,6.0,11.0,64,0.00,,CLR,0.00,VWS V14.01,2013-04-10 04:55:00,
2013-04-10 01:00:00,69.7,57.0,29.99,SSW,198,5.0,7.0,64,0.00,,CLR,0.00,VWS V14.01,2013-04-10 05:00:00,
2013-04-10 01:05:00,69.8,57.1,29.99,SSW,213,5.0,9.0,64,0.00,,CLR,0.00,VWS V14.01,2013-04-10 05:05:00,
2013-04-10 01:10:00,69.7,57.0,29.99,SW,224,6.0,9.0,64,0.00,,CLR,0.00,VWS V14.01,2013-04-10 05:10:00,
2013-04-10 01:15:00,69.4,56.7,29.99,SSW,207,5.0,9.0,64,0.00,,CLR,0.00,VWS V14.01,2013-04-10 05:15:00,
2013-04-10 01:20:00,69.0,56.8,30.00,SSW,209,6.0,10.0,65,0.00,,CLR,0.00,VWS V14.01,2013-04-10 05:20:00,
2013-04-10 01:25:00,68.7,56.9,29.99,SSW,202,6.0,10.0,66,0.00,,CLR,0.00,VWS V14.01,2013-04-10 05:25:00,
2013-04-10 01:30:00,68.8,57.0,29.99,SSW,211,7.0,7.0,66,0.00,,CLR,0.00,VWS V14.01,2013-04-10 05:30:00,
2013-04-10 01:35:00,68.8,57.0,29.99,SSW,204,5.0,9.0,66,0.00,,CLR,0.00,VWS V14.01,2013-04-10 05:35:00,
2013-04-10 01:40:00,68.8,57.0,29.99,SSW,210,4.0,9.0,66,0.00,,CLR,0.00,VWS V14.01,2013-04-10 05:40:00,
2013-04-10 01:45:00,68.7,56.9,29.99,South,182,4.0,9.0,66,0.00,,CLR,0.00,VWS V14.01,2013-04-10 05:45:00,
2013-04-10 01:50:00,68.5,56.7,29.99,SW,214,4.0,9.0,66,0.00,,CLR,0.00,VWS V14.01,2013-04-10 05:50:00,
2013-04-10 01:55:00,68.3,56.9,29.99,SW,216,4.0,9.0,67,0.00,,CLR,0.00,VWS V14.01,2013-04-10 05:55:00,
2013-04-10 02:00:00,68.1,56.7,29.99,WSW,238,4.0,6.0,67,0.00,,CLR,0.00,VWS V14.01,2013-04-10 06:00:00,
2013-04-10 02:05:00,67.9,57.0,29.99,SW,221,6.0,6.0,68,0.00,,CLR,0.00,VWS V14.01,2013-04-10 06:05:00,
2013-04-10 02:10:00,67.7,56.8,29.99,SSW,212,4.0,6.0,68,0.00,,CLR,0.00,VWS V14.01,2013-04-10 06:10:00,
2013-04-10 02:15:00,67.7,56.8,29.99,SW,217,4.0,8.0,68,0.00,,CLR,0.00,VWS V14.01,2013-04-10 06:15:00,
2013-04-10 02:20:00,67.5,57.0,29.99,SW,227,5.0,9.0,69,0.00,,CLR,0.00,VWS V14.01,2013-04-10 06:20:00,
2013-04-10 02:25:00,67.1,56.6,29.99,SW,232,3.0,9.0,69,0.00,,CLR,0.00,VWS V14.01,2013-04-10 06:25:00,
2013-04-10 02:30:00,66.8,56.3,29.99,SW,214,3.0,4.0,69,0.00,,CLR,0.00,VWS V14.01,2013-04-10 06:30:00,
2013-04-10 02:35:00,66.5,56.4,29.99,SW,236,1.0,4.0,70,0.00,,CLR,0.00,VWS V14.01,2013-04-10 06:35:00,
2013-04-10 02:40:00,66.3,56.2,29.99,SW,235,2.0,4.0,70,0.00,,CLR,0.00,VWS V14.01,2013-04-10 06:40:00,
2013-04-10 02:45:00,66.1,56.4,29.99,SW,235,1.0,4.0,71,0.00,,CLR,0.00,VWS V14.01,2013-04-10 06:45:00,
2013-04-10 02:50:00,65.8,56.5,29.99,SW,235,0.0,4.0,72,0.00,,CLR,0.00,VWS V14.01,2013-04-10 06:50:00,
2013-04-10 02:55:00,65.4,56.2,29.98,SW,235,0.0,4.0,72,0.00,,CLR,0.00,VWS V14.01,2013-04-10 06:55:00,
2013-04-10 03:00:00,65.2,56.3,29.98,SW,235,1.0,1.0,73,0.00,,CLR,0.00,VWS V14.01,2013-04-10 07:00:00,
2013-04-10 03:05:00,65.0,56.5,29.98,SW,235,1.0,1.0,74,0.00,,CLR,0.00,VWS V14.01,2013-04-10 07:05:00,
2013-04-10 03:10:00,64.7,56.2,29.98,SW,235,2.0,2.0,74,0.00,,CLR,0.00,VWS V14.01,2013-04-10 07:10:00,
2013-04-10 03:15:00,64.2,56.1,29.98,SSW,202,2.0,3.0,75,0.00,,CLR,0.00,VWS V14.01,2013-04-10 07:15:00,
2013-04-10 03:20:00,63.5,56.2,29.98,SSW,192,2.0,4.0,77,0.00,,CLR,0.00,VWS V14.01,2013-04-10 07:20:00,
2013-04-10 03:30:00,63.3,56.3,29.98,SW,225,2.0,4.0,78,0.00,,,0.00,VWS V14.01,2013-04-10 07:30:00,
2013-04-10 04:00:00,63.9,56.6,29.98,South,180,3.0,7.0,77,0.00,,,0.00,VWS V14.01,2013-04-10 08:00:00,
2013-04-10 04:30:00,64.0,56.3,29.99,SSW,202,4.0,10.0,76,0.00,,,0.00,VWS V14.01,2013-04-10 08:30:00,
2013-04-10 05:00:00,64.8,56.7,29.99,SSW,202,3.0,7.0,75,0.00,,,0.00,VWS V14.01,2013-04-10 09:00:00,
2013-04-10 05:30:00,65.1,56.6,29.99,SSE,158,2.0,5.0,74,0.00,,,0.00,VWS V14.01,2013-04-10 09:30:00,
2013-04-10 06:00:00,65.3,56.8,30.00,SSE,158,3.0,6.0,74,0.00,,,0.00,VWS V14.01,2013-04-10 10:00:00,
2013-04-10 06:30:00,64.8,56.3,30.00,South,180,3.0,7.0,74,0.00,,,0.00,VWS V14.01,2013-04-10 10:30:00,
2013-04-10 07:00:00,64.8,56.3,30.00,South,180,3.0,7.0,74,0.00,,,0.00,VWS V14.01,2013-04-10 11:00:00,
2013-04-10 07:30:00,64.1,56.4,30.01,SSW,202,2.0,6.0,76,0.00,,,0.00,VWS V14.01,2013-04-10 11:30:00,
2013-04-10 08:00:00,64.8,57.1,30.02,SSE,158,3.0,6.0,76,0.00,,,0.00,VWS V14.01,2013-04-10 12:00:00,
2013-04-10 08:30:00,67.8,58.5,30.02,South,180,3.0,6.0,72,0.00,,,0.00,VWS V14.01,2013-04-10 12:30:00,
2013-04-10 09:00:00,70.5,58.6,30.02,SW,225,4.0,8.0,66,0.00,,,0.00,VWS V14.01,2013-04-10 13:00:00,
2013-04-10 09:47:00,74.4,59.2,30.02,South,174,8.0,8.0,59,0.00,,,0.00,VWS V14.01,2013-04-10 13:47:00,
2013-04-10 09:52:00,74.9,60.6,30.02,SW,219,5.0,8.0,61,0.00,,,0.00,VWS V14.01,2013-04-10 13:52:00,
2013-04-10 09:57:00,75.3,61.4,30.02,SSW,209,6.0,8.0,62,0.00,,,0.00,VWS V14.01,2013-04-10 13:57:00,
2013-04-10 10:00:00,75.4,59.6,30.02,SW,222,4.0,8.0,58,0.00,,OVC044,0.00,VWS V14.01,2013-04-10 14:00:00,
2013-04-10 10:02:00,75.5,59.2,30.02,SSE,161,5.0,7.0,57,0.00,,CLR,0.00,VWS V14.01,2013-04-10 14:02:00,
2013-04-10 10:07:00,76.1,60.8,30.02,SW,224,1.0,7.0,59,0.00,,CLR,0.00,VWS V14.01,2013-04-10 14:07:00,
2013-04-10 10:12:00,76.5,59.7,30.02,SW,218,6.0,8.0,56,0.00,,CLR,0.00,VWS V14.01,2013-04-10 14:12:00,
2013-04-10 10:17:00,76.9,60.0,30.02,SSW,207,3.0,8.0,56,0.00,,CLR,0.00,VWS V14.01,2013-04-10 14:17:00,
2013-04-10 10:22:00,77.3,59.4,30.02,WSW,256,4.0,8.0,54,0.00,,CLR,0.00,VWS V14.01,2013-04-10 14:22:00,
2013-04-10 10:27:00,77.6,60.2,30.02,SSE,165,3.0,8.0,55,0.00,,CLR,0.00,VWS V14.01,2013-04-10 14:27:00,
2013-04-10 10:30:00,77.7,60.8,30.02,SSW,211,5.0,8.0,56,0.00,,OVC044,0.00,VWS V14.01,2013-04-10 14:30:00,
2013-04-10 10:32:00,77.9,59.9,30.02,SSW,200,6.0,6.0,54,0.00,,CLR,0.00,VWS V14.01,2013-04-10 14:32:00,
2013-04-10 10:37:00,78.1,59.6,30.02,SSE,167,5.0,7.0,53,0.00,,CLR,0.00,VWS V14.01,2013-04-10 14:37:00,
2013-04-10 10:42:00,78.6,61.1,30.01,SSE,165,5.0,7.0,55,0.00,,CLR,0.00,VWS V14.01,2013-04-10 14:42:00,
2013-04-10 10:47:00,78.9,59.2,30.02,SSW,207,2.0,9.0,51,0.00,,CLR,0.00,VWS V14.01,2013-04-10 14:47:00,
2013-04-10 10:52:00,79.2,59.0,30.02,WSW,239,7.0,9.0,50,0.00,,CLR,0.00,VWS V14.01,2013-04-10 14:52:00,
2013-04-10 10:57:00,79.1,60.0,30.02,SW,222,6.0,9.0,52,0.00,,CLR,0.00,VWS V14.01,2013-04-10 14:57:00,
2013-04-10 11:00:00,79.3,59.1,30.02,SSW,213,4.0,9.0,50,0.00,,OVC044,0.00,VWS V14.01,2013-04-10 15:00:00,
2013-04-10 11:02:00,79.4,58.6,30.02,WSW,244,7.0,7.0,49,0.00,,CLR,0.00,VWS V14.01,2013-04-10 15:02:00,
2013-04-10 11:07:00,79.6,59.3,30.01,WSW,254,1.0,7.0,50,0.00,,CLR,0.00,VWS V14.01,2013-04-10 15:07:00,
2013-04-10 11:12:00,80.2,59.3,30.02,SSW,196,6.0,11.0,49,0.00,,CLR,0.00,VWS V14.01,2013-04-10 15:12:00,
2013-04-10 11:17:00,80.4,60.1,30.02,WSW,238,5.0,11.0,50,0.00,,CLR,0.00,VWS V14.01,2013-04-10 15:17:00,
2013-04-10 11:22:00,80.2,60.5,30.01,SSW,200,9.0,12.0,51,0.00,,CLR,0.00,VWS V14.01,2013-04-10 15:22:00,
2013-04-10 11:27:00,80.4,60.6,30.01,South,180,6.0,12.0,51,0.00,,CLR,0.00,VWS V14.01,2013-04-10 15:27:00,
2013-04-10 11:30:00,80.6,60.8,30.01,South,185,3.0,12.0,51,0.00,,OVC044,0.00,VWS V14.01,2013-04-10 15:30:00,
2013-04-10 11:32:00,80.9,60.5,30.01,SE,130,4.0,7.0,50,0.00,,CLR,0.00,VWS V14.01,2013-04-10 15:32:00,
2013-04-10 11:37:00,81.2,61.4,30.01,SSE,154,7.0,9.0,51,0.00,,CLR,0.00,VWS V14.01,2013-04-10 15:37:00,
2013-04-10 11:42:00,81.3,59.2,30.01,SSE,163,4.0,11.0,47,0.00,,CLR,0.00,VWS V14.01,2013-04-10 15:42:00,
2013-04-10 11:47:00,81.6,60.0,30.01,SSW,209,3.0,11.0,48,0.00,,CLR,0.00,VWS V14.01,2013-04-10 15:47:00,
2013-04-10 11:52:00,81.6,58.8,30.01,SSW,196,6.0,12.0,46,0.00,,CLR,0.00,VWS V14.01,2013-04-10 15:52:00,
2013-04-10 11:57:00,81.5,58.1,30.01,SW,233,4.0,12.0,45,0.00,,CLR,0.00,VWS V14.01,2013-04-10 15:57:00,
2013-04-10 12:00:00,81.5,58.8,30.01,SW,233,5.0,12.0,46,0.00,,OVC044,0.00,VWS V14.01,2013-04-10 16:00:00,
2013-04-10 12:02:00,81.9,60.9,30.01,SW,217,8.0,9.0,49,0.00,,CLR,0.00,VWS V14.01,2013-04-10 16:02:00,
2013-04-10 12:07:00,81.9,59.7,30.01,SW,217,5.0,12.0,47,0.00,,CLR,0.00,VWS V14.01,2013-04-10 16:07:00,
2013-04-10 12:12:00,82.2,59.4,30.01,SSW,205,1.0,12.0,46,0.00,,CLR,0.00,VWS V14.01,2013-04-10 16:12:00,
2013-04-10 12:17:00,82.6,59.1,30.00,West,274,5.0,12.0,45,0.00,,CLR,0.00,VWS V14.01,2013-04-10 16:17:00,
2013-04-10 12:22:00,82.6,60.3,30.00,SW,217,7.0,12.0,47,0.00,,CLR,0.00,VWS V14.01,2013-04-10 16:22:00,
2013-04-10 12:27:00,82.7,59.8,30.00,South,182,4.0,12.0,46,0.00,,CLR,0.00,VWS V14.01,2013-04-10 16:27:00,
2013-04-10 12:30:00,82.9,59.4,30.00,South,190,5.0,12.0,45,0.00,,OVC044,0.00,VWS V14.01,2013-04-10 16:30:00,
2013-04-10 12:32:00,83.2,59.0,30.00,WSW,247,7.0,15.0,44,0.00,,CLR,0.00,VWS V14.01,2013-04-10 16:32:00,
2013-04-10 12:37:00,83.2,60.9,29.99,South,186,3.0,15.0,47,0.00,,CLR,0.00,VWS V14.01,2013-04-10 16:37:00,
2013-04-10 12:42:00,83.5,59.3,29.99,South,185,9.0,15.0,44,0.00,,CLR,0.00,VWS V14.01,2013-04-10 16:42:00,
2013-04-10 12:47:00,83.6,58.1,29.99,SE,131,6.0,15.0,42,0.00,,CLR,0.00,VWS V14.01,2013-04-10 16:47:00,
2013-04-10 12:52:00,83.9,59.0,29.99,SW,220,14.0,16.0,43,0.00,,CLR,0.00,VWS V14.01,2013-04-10 16:52:00,
2013-04-10 12:57:00,83.9,58.4,29.99,WSW,257,2.0,16.0,42,0.00,,CLR,0.00,VWS V14.01,2013-04-10 16:57:00,
2013-04-10 13:00:00,83.9,57.7,29.99,South,186,3.0,16.0,41,0.00,,OVC044,0.00,VWS V14.01,2013-04-10 17:00:00,
2013-04-10 13:02:00,84.0,58.5,29.98,SSW,199,7.0,7.0,42,0.00,,CLR,0.00,VWS V14.01,2013-04-10 17:02:00,
2013-04-10 13:07:00,84.4,59.5,29.98,South,171,6.0,11.0,43,0.00,,CLR,0.00,VWS V14.01,2013-04-10 17:07:00,
2013-04-10 13:12:00,84.5,57.5,29.98,SW,225,4.0,11.0,40,0.00,,CLR,0.00,VWS V14.01,2013-04-10 17:12:00,
2013-04-10 13:17:00,84.7,58.4,29.98,SW,221,5.0,11.0,41,0.00,,CLR,0.00,VWS V14.01,2013-04-10 17:17:00,
2013-04-10 13:22:00,84.8,58.5,29.98,SW,229,14.0,14.0,41,0.00,,CLR,0.00,VWS V14.01,2013-04-10 17:22:00,
2013-04-10 13:27:00,84.6,59.7,29.97,WSW,241,6.0,14.0,43,0.00,,CLR,0.00,VWS V14.01,2013-04-10 17:27:00,
2013-04-10 13:30:00,84.9,59.9,29.97,SSW,194,4.0,14.0,43,0.00,,OVC044,0.00,VWS V14.01,2013-04-10 17:30:00,
2013-04-10 13:32:00,85.3,60.3,29.97,SW,215,5.0,10.0,43,0.00,,CLR,0.00,VWS V14.01,2013-04-10 17:32:00,
2013-04-10 13:37:00,85.3,60.9,29.97,SSE,167,8.0,12.0,44,0.00,,CLR,0.00,VWS V14.01,2013-04-10 17:37:00,
2013-04-10 13:42:00,85.2,58.2,29.97,SSW,206,8.0,16.0,40,0.00,,CLR,0.00,VWS V14.01,2013-04-10 17:42:00,
2013-04-10 13:47:00,85.2,60.2,29.97,SW,229,7.0,16.0,43,0.00,,CLR,0.00,VWS V14.01,2013-04-10 17:47:00,
2013-04-10 13:52:00,85.7,58.6,29.97,SW,232,8.0,16.0,40,0.00,,CLR,0.00,VWS V14.01,2013-04-10 17:52:00,
2013-04-10 13:57:00,85.6,59.2,29.96,SW,232,13.0,16.0,41,0.00,,CLR,0.00,VWS V14.01,2013-04-10 17:57:00,
2013-04-10 14:00:00,85.5,58.5,29.96,SSW,198,7.0,16.0,40,0.00,,OVC044,0.00,VWS V14.01,2013-04-10 18:00:00,
2013-04-10 14:02:00,85.3,58.3,29.96,South,177,16.0,16.0,40,0.00,,CLR,0.00,VWS V14.01,2013-04-10 18:02:00,
2013-04-10 14:07:00,85.5,59.1,29.95,SW,224,10.0,16.0,41,0.00,,CLR,0.00,VWS V14.01,2013-04-10 18:07:00,
2013-04-10 14:12:00,85.7,58.6,29.95,South,190,9.0,16.0,40,0.00,,CLR,0.00,VWS V14.01,2013-04-10 18:12:00,
2013-04-10 14:17:00,85.9,58.1,29.95,SSW,213,7.0,16.0,39,0.00,,CLR,0.00,VWS V14.01,2013-04-10 18:17:00,
2013-04-10 14:22:00,85.9,58.1,29.95,South,171,7.0,16.0,39,0.00,,CLR,0.00,VWS V14.01,2013-04-10 18:22:00,
2013-04-10 14:27:00,86.0,58.9,29.94,South,181,8.0,16.0,40,0.00,,CLR,0.00,VWS V14.01,2013-04-10 18:27:00,
2013-04-10 14:30:00,86.1,59.0,29.95,SW,221,10.0,17.0,40,0.00,,OVC044,0.00,VWS V14.01,2013-04-10 18:30:00,
2013-04-10 14:32:00,86.2,60.4,29.94,SW,236,10.0,17.0,42,0.00,,CLR,0.00,VWS V14.01,2013-04-10 18:32:00,
2013-04-10 14:37:00,86.2,59.1,29.94,SSW,213,7.0,17.0,40,0.00,,CLR,0.00,VWS V14.01,2013-04-10 18:37:00,
2013-04-10 14:42:00,86.5,58.6,29.94,SSW,203,10.0,17.0,39,0.00,,CLR,0.00,VWS V14.01,2013-04-10 18:42:00,
2013-04-10 14:47:00,86.7,60.2,29.94,SE,146,9.0,17.0,41,0.00,,CLR,0.00,VWS V14.01,2013-04-10 18:47:00,
2013-04-10 14:52:00,87.2,59.2,29.94,SSE,157,13.0,17.0,39,0.00,,CLR,0.00,VWS V14.01,2013-04-10 18:52:00,
2013-04-10 14:57:00,87.3,59.3,29.94,SW,228,10.0,17.0,39,0.00,,CLR,0.00,VWS V14.01,2013-04-10 18:57:00,
2013-04-10 15:00:00,87.1,57.7,29.93,SW,218,13.0,17.0,37,0.00,,OVC044,0.00,VWS V14.01,2013-04-10 19:00:00,
2013-04-10 15:02:00,86.6,58.0,29.93,SSW,202,14.0,19.0,38,0.00,,CLR,0.00,VWS V14.01,2013-04-10 19:02:00,
2013-04-10 15:07:00,86.5,57.2,29.93,SW,216,10.0,19.0,37,0.00,,CLR,0.00,VWS V14.01,2013-04-10 19:07:00,
2013-04-10 15:12:00,86.7,57.3,29.93,SSW,194,12.0,19.0,37,0.00,,CLR,0.00,VWS V14.01,2013-04-10 19:12:00,
2013-04-10 15:17:00,87.1,57.7,29.93,SW,234,13.0,19.0,37,0.00,,CLR,0.00,VWS V14.01,2013-04-10 19:17:00,
2013-04-10 15:22:00,87.3,57.1,29.92,SE,127,12.0,19.0,36,0.00,,CLR,0.00,VWS V14.01,2013-04-10 19:22:00,
2013-04-10 15:27:00,87.5,56.5,29.92,SSW,202,8.0,19.0,35,0.00,,CLR,0.00,VWS V14.01,2013-04-10 19:27:00,
2013-04-10 15:30:00,87.5,57.3,29.92,SSE,162,8.0,19.0,36,0.00,,OVC044,0.00,VWS V14.01,2013-04-10 19:30:00,
2013-04-10 15:32:00,87.5,55.7,29.92,SSW,203,7.0,13.0,34,0.00,,CLR,0.00,VWS V14.01,2013-04-10 19:32:00,
2013-04-10 15:37:00,87.8,57.5,29.91,SE,144,10.0,15.0,36,0.00,,CLR,0.00,VWS V14.01,2013-04-10 19:37:00,
2013-04-10 15:42:00,87.7,55.9,29.91,SW,225,14.0,15.0,34,0.00,,CLR,0.00,VWS V14.01,2013-04-10 19:42:00,
2013-04-10 15:47:00,87.5,55.7,29.91,SW,236,14.0,20.0,34,0.00,,CLR,0.00,VWS V14.01,2013-04-10 19:47:00,
2013-04-10 15:53:00,87.5,55.7,29.91,SSE,158,5.0,20.0,34,0.00,,CLR,0.00,VWS V14.01,2013-04-10 19:53:00,
2013-04-10 15:58:00,87.6,55.8,29.90,South,183,9.0,20.0,34,0.00,,CLR,0.00,VWS V14.01,2013-04-10 19:58:00,
2013-04-10 16:00:00,87.7,57.5,29.90,SW,229,11.0,20.0,36,0.00,,OVC044,0.00,VWS V14.01,2013-04-10 20:00:00,
2013-04-10 16:03:00,87.9,55.2,29.90,WSW,242,6.0,14.0,33,0.00,,CLR,0.00,VWS V14.01,2013-04-10 20:03:00,
2013-04-10 16:08:00,87.7,55.1,29.90,SSW,199,9.0,15.0,33,0.00,,CLR,0.00,VWS V14.01,2013-04-10 20:08:00,
2013-04-10 16:13:00,87.7,55.1,29.90,SSE,157,6.0,15.0,33,0.00,,CLR,0.00,VWS V14.01,2013-04-10 20:13:00,
2013-04-10 16:18:00,87.8,56.0,29.90,SW,225,11.0,17.0,34,0.00,,CLR,0.00,VWS V14.01,2013-04-10 20:18:00,
2013-04-10 16:23:00,87.5,56.5,29.90,SW,225,12.0,18.0,35,0.00,,CLR,0.00,VWS V14.01,2013-04-10 20:23:00,
2013-04-10 16:28:00,87.2,56.2,29.90,SSW,211,16.0,22.0,35,0.00,,CLR,0.00,VWS V14.01,2013-04-10 20:28:00,
2013-04-10 16:30:00,87.1,56.2,29.90,SW,217,15.0,22.0,35,0.00,,OVC044,0.00,VWS V14.01,2013-04-10 20:30:00,
2013-04-10 16:33:00,87.2,56.2,29.90,SSW,192,10.0,15.0,35,0.00,,CLR,0.00,VWS V14.01,2013-04-10 20:33:00,
2013-04-10 16:38:00,87.0,56.1,29.90,SSW,200,11.0,19.0,35,0.00,,CLR,0.00,VWS V14.01,2013-04-10 20:38:00,
2013-04-10 16:43:00,87.0,56.8,29.89,SE,146,11.0,19.0,36,0.00,,CLR,0.00,VWS V14.01,2013-04-10 20:43:00,
2013-04-10 16:48:00,87.0,57.6,29.89,SSE,161,9.0,19.0,37,0.00,,CLR,0.00,VWS V14.01,2013-04-10 20:48:00,
2013-04-10 16:53:00,87.3,57.1,29.89,SW,219,12.0,19.0,36,0.00,,CLR,0.00,VWS V14.01,2013-04-10 20:53:00,
2013-04-10 16:58:00,87.1,57.7,29.89,SSW,207,10.0,19.0,37,0.00,,CLR,0.00,VWS V14.01,2013-04-10 20:58:00,
2013-04-10 17:00:00,87.0,58.3,29.89,WSW,246,9.0,19.0,38,0.00,,OVC044,0.00,VWS V14.01,2013-04-10 21:00:00,
2013-04-10 17:03:00,87.1,57.7,29.89,SW,218,6.0,15.0,37,0.00,,CLR,0.00,VWS V14.01,2013-04-10 21:03:00,
2013-04-10 17:08:00,87.4,58.0,29.89,SSW,207,8.0,15.0,37,0.00,,CLR,0.00,VWS V14.01,2013-04-10 21:08:00,
2013-04-10 17:13:00,87.2,57.0,29.89,SW,214,15.0,22.0,36,0.00,,CLR,0.00,VWS V14.01,2013-04-10 21:13:00,
2013-04-10 17:18:00,86.9,56.0,29.89,SW,222,10.0,22.0,35,0.00,,CLR,0.00,VWS V14.01,2013-04-10 21:18:00,
2013-04-10 17:23:00,86.7,57.3,29.88,SSW,192,9.0,22.0,37,0.00,,CLR,0.00,VWS V14.01,2013-04-10 21:23:00,
2013-04-10 17:28:00,86.7,56.6,29.88,SSW,209,11.0,22.0,36,0.00,,CLR,0.00,VWS V14.01,2013-04-10 21:28:00,
2013-04-10 17:30:00,86.6,56.5,29.88,SW,229,11.0,22.0,36,0.00,,OVC044,0.00,VWS V14.01,2013-04-10 21:30:00,
2013-04-10 17:33:00,86.5,57.2,29.88,SW,220,10.0,15.0,37,0.00,,CLR,0.00,VWS V14.01,2013-04-10 21:33:00,
2013-04-10 17:38:00,86.3,57.0,29.88,WSW,247,7.0,16.0,37,0.00,,CLR,0.00,VWS V14.01,2013-04-10 21:38:00,
2013-04-10 17:43:00,86.3,56.2,29.88,SW,234,15.0,18.0,36,0.00,,CLR,0.00,VWS V14.01,2013-04-10 21:43:00,
2013-04-10 17:48:00,86.1,56.8,29.88,SSW,192,7.0,22.0,37,0.00,,CLR,0.00,VWS V14.01,2013-04-10 21:48:00,
2013-04-10 17:53:00,86.2,56.9,29.88,SSW,212,10.0,22.0,37,0.00,,CLR,0.00,VWS V14.01,2013-04-10 21:53:00,
2013-04-10 17:58:00,86.0,56.7,29.87,SW,228,12.0,22.0,37,0.00,,CLR,0.00,VWS V14.01,2013-04-10 21:58:00,
2013-04-10 18:00:00,85.9,57.4,29.87,SSW,210,6.0,22.0,38,0.00,,OVC044,0.00,VWS V14.01,2013-04-10 22:00:00,
2013-04-10 18:03:00,86.0,56.7,29.87,South,176,9.0,18.0,37,0.00,,CLR,0.00,VWS V14.01,2013-04-10 22:03:00,
2013-04-10 18:08:00,85.8,56.5,29.87,SW,225,14.0,18.0,37,0.00,,CLR,0.00,VWS V14.01,2013-04-10 22:08:00,
2013-04-10 18:13:00,85.7,56.5,29.87,SSW,202,9.0,18.0,37,0.00,,CLR,0.00,VWS V14.01,2013-04-10 22:13:00,
2013-04-10 18:18:00,85.8,56.5,29.87,South,170,10.0,18.0,37,0.00,,CLR,0.00,VWS V14.01,2013-04-10 22:18:00,
2013-04-10 18:23:00,85.5,56.3,29.87,SSW,209,11.0,21.0,37,0.00,,CLR,0.00,VWS V14.01,2013-04-10 22:23:00,
2013-04-10 18:28:00,85.3,56.1,29.86,South,176,9.0,21.0,37,0.00,,CLR,0.00,VWS V14.01,2013-04-10 22:28:00,
2013-04-10 18:30:00,85.3,56.8,29.87,South,182,11.0,21.0,38,0.00,,OVC044,0.00,VWS V14.01,2013-04-10 22:30:00,
2013-04-10 18:33:00,85.1,56.7,29.87,South,182,9.0,19.0,38,0.00,,CLR,0.00,VWS V14.01,2013-04-10 22:33:00,
2013-04-10 18:38:00,85.0,57.3,29.87,SW,215,12.0,19.0,39,0.00,,CLR,0.00,VWS V14.01,2013-04-10 22:38:00,
2013-04-10 18:43:00,84.8,57.1,29.86,South,179,8.0,19.0,39,0.00,,CLR,0.00,VWS V14.01,2013-04-10 22:43:00,
2013-04-10 18:48:00,84.7,57.0,29.86,SSW,207,9.0,19.0,39,0.00,,CLR,0.00,VWS V14.01,2013-04-10 22:48:00,
2013-04-10 18:53:00,84.5,56.8,29.86,SSW,204,7.0,19.0,39,0.00,,CLR,0.00,VWS V14.01,2013-04-10 22:53:00,
2013-04-10 18:58:00,84.2,57.3,29.86,SW,222,10.0,19.0,40,0.00,,CLR,0.00,VWS V14.01,2013-04-10 22:58:00,
2013-04-10 19:00:00,84.1,57.2,29.86,South,185,6.0,19.0,40,0.00,,OVC044,0.00,VWS V14.01,2013-04-10 23:00:00,
2013-04-10 19:03:00,84.0,57.1,29.86,SSW,209,7.0,12.0,40,0.00,,CLR,0.00,VWS V14.01,2013-04-10 23:03:00,
2013-04-10 19:08:00,83.7,56.8,29.86,SSW,199,9.0,16.0,40,0.00,,CLR,0.00,VWS V14.01,2013-04-10 23:08:00,
2013-04-10 19:13:00,83.4,56.6,29.86,South,189,4.0,16.0,40,0.00,,CLR,0.00,VWS V14.01,2013-04-10 23:13:00,
2013-04-10 19:18:00,83.1,57.0,29.86,SSE,168,9.0,16.0,41,0.00,,CLR,0.00,VWS V14.01,2013-04-10 23:18:00,
2013-04-10 19:23:00,82.8,56.7,29.86,SSW,203,6.0,16.0,41,0.00,,CLR,0.00,VWS V14.01,2013-04-10 23:23:00,
2013-04-10 19:28:00,82.5,56.5,29.86,SSW,205,6.0,16.0,41,0.00,,CLR,0.00,VWS V14.01,2013-04-10 23:28:00,
2013-04-10 19:30:00,82.3,56.3,29.86,SW,224,5.0,16.0,41,0.00,,OVC044,0.00,VWS V14.01,2013-04-10 23:30:00,
2013-04-10 19:33:00,82.2,56.2,29.86,SW,216,5.0,10.0,41,0.00,,CLR,0.00,VWS V14.01,2013-04-10 23:33:00,
2013-04-10 19:38:00,81.9,56.6,29.86,SSW,206,4.0,12.0,42,0.00,,CLR,0.00,VWS V14.01,2013-04-10 23:38:00,
2013-04-10 19:43:00,81.6,56.3,29.86,SSW,207,7.0,13.0,42,0.00,,CLR,0.00,VWS V14.01,2013-04-10 23:43:00,
2013-04-10 19:48:00,81.3,56.0,29.87,SSW,207,6.0,13.0,42,0.00,,CLR,0.00,VWS V14.01,2013-04-10 23:48:00,
2013-04-10 19:53:00,81.1,55.9,29.86,SSW,207,6.0,13.0,42,0.00,,CLR,0.00,VWS V14.01,2013-04-10 23:53:00,
2013-04-10 19:58:00,80.9,56.3,29.87,SW,234,6.0,13.0,43,0.00,,CLR,0.00,VWS V14.01,2013-04-10 23:58:00,
2013-04-10 20:00:00,80.9,56.3,29.86,SSW,197,10.0,13.0,43,0.00,,OVC044,0.00,VWS V14.01,2013-04-11 00:00:00,
2013-04-10 20:03:00,80.7,56.2,29.86,SW,231,6.0,10.0,43,0.00,,CLR,0.00,VWS V14.01,2013-04-11 00:03:00,
2013-04-10 20:08:00,80.4,56.5,29.86,SW,215,6.0,10.0,44,0.00,,CLR,0.00,VWS V14.01,2013-04-11 00:08:00,
2013-04-10 20:13:00,80.1,56.2,29.86,SSW,192,6.0,10.0,44,0.00,,CLR,0.00,VWS V14.01,2013-04-11 00:13:00,
2013-04-10 20:18:00,79.9,56.7,29.87,SSW,210,6.0,10.0,45,0.00,,CLR,0.00,VWS V14.01,2013-04-11 00:18:00,
2013-04-10 20:23:00,79.5,56.3,29.86,SSW,209,7.0,10.0,45,0.00,,CLR,0.00,VWS V14.01,2013-04-11 00:23:00,
2013-04-10 20:28:00,79.2,56.0,29.86,SSW,200,6.0,10.0,45,0.00,,CLR,0.00,VWS V14.01,2013-04-11 00:28:00,
2013-04-10 20:30:00,79.1,56.0,29.86,South,191,5.0,10.0,45,0.00,,OVC044,0.00,VWS V14.01,2013-04-11 00:30:00,
2013-04-10 20:33:00,78.9,56.4,29.86,SSW,205,5.0,8.0,46,0.00,,CLR,0.00,VWS V14.01,2013-04-11 00:33:00,
2013-04-10 20:38:00,78.6,56.1,29.87,SSW,197,7.0,9.0,46,0.00,,CLR,0.00,VWS V14.01,2013-04-11 00:38:00,
2013-04-10 20:43:00,78.4,56.5,29.87,South,186,4.0,9.0,47,0.00,,CLR,0.00,VWS V14.01,2013-04-11 00:43:00,
2013-04-10 20:48:00,78.3,56.4,29.87,SW,225,4.0,9.0,47,0.00,,CLR,0.00,VWS V14.01,2013-04-11 00:48:00,
2013-04-10 20:53:00,78.2,56.3,29.87,South,169,4.0,9.0,47,0.00,,CLR,0.00,VWS V14.01,2013-04-11 00:53:00,
2013-04-10 20:58:00,77.9,56.7,29.87,South,186,4.0,9.0,48,0.00,,CLR,0.00,VWS V14.01,2013-04-11 00:58:00,
2013-04-10 21:00:00,77.9,56.7,29.87,SSE,155,8.0,9.0,48,0.00,,OVC044,0.00,VWS V14.01,2013-04-11 01:00:00,
2013-04-10 21:04:00,77.7,57.0,29.87,SSW,192,5.0,12.0,49,0.00,,CLR,0.00,VWS V14.01,2013-04-11 01:04:00,
2013-04-10 21:09:00,77.4,57.3,29.88,SSE,167,4.0,12.0,50,0.00,,CLR,0.00,VWS V14.01,2013-04-11 01:09:00,
2013-04-10 21:14:00,77.2,57.1,29.88,South,188,8.0,12.0,50,0.00,,CLR,0.00,VWS V14.01,2013-04-11 01:14:00,
2013-04-10 21:19:00,76.8,57.3,29.88,South,175,3.0,12.0,51,0.00,,CLR,0.00,VWS V14.01,2013-04-11 01:19:00,
2013-04-10 21:24:00,76.6,57.7,29.88,SSW,212,4.0,12.0,52,0.00,,CLR,0.00,VWS V14.01,2013-04-11 01:24:00,
2013-04-10 21:29:00,76.4,57.5,29.88,SSW,193,7.0,12.0,52,0.00,,CLR,0.00,VWS V14.01,2013-04-11 01:29:00,
2013-04-10 21:30:00,76.4,57.5,29.88,SSW,204,8.0,12.0,52,0.00,,OVC044,0.00,VWS V14.01,2013-04-11 01:30:00,
2013-04-10 21:34:00,76.3,57.9,29.88,South,180,3.0,8.0,53,0.00,,CLR,0.00,VWS V14.01,2013-04-11 01:34:00,
2013-04-10 21:39:00,76.3,57.9,29.88,SSW,207,3.0,8.0,53,0.00,,CLR,0.00,VWS V14.01,2013-04-11 01:39:00,
2013-04-10 21:44:00,76.1,58.3,29.88,SW,217,4.0,9.0,54,0.00,,CLR,0.00,VWS V14.01,2013-04-11 01:44:00,
2013-04-10 21:49:00,76.0,58.2,29.88,South,190,5.0,9.0,54,0.00,,CLR,0.00,VWS V14.01,2013-04-11 01:49:00,
2013-04-10 21:54:00,75.8,58.0,29.88,SW,219,5.0,9.0,54,0.00,,CLR,0.00,VWS V14.01,2013-04-11 01:54:00,
2013-04-10 21:59:00,75.7,57.9,29.88,SSW,207,4.0,10.0,54,0.00,,CLR,0.00,VWS V14.01,2013-04-11 01:59:00,
2013-04-10 22:00:00,75.7,57.9,29.88,South,190,3.0,10.0,54,0.00,,OVC044,0.00,VWS V14.01,2013-04-11 02:00:00,
2013-04-10 22:04:00,75.5,58.2,29.89,South,186,3.0,9.0,55,0.00,,CLR,0.00,VWS V14.01,2013-04-11 02:04:00,
2013-04-10 22:09:00,75.3,58.0,29.88,SSW,209,4.0,9.0,55,0.00,,CLR,0.00,VWS V14.01,2013-04-11 02:09:00,
2013-04-10 22:14:00,75.0,57.8,29.88,SW,222,5.0,9.0,55,0.00,,CLR,0.00,VWS V14.01,2013-04-11 02:14:00,
2013-04-10 22:19:00,74.6,57.9,29.89,SW,223,4.0,9.0,56,0.00,,CLR,0.00,VWS V14.01,2013-04-11 02:19:00,
2013-04-10 22:24:00,74.2,58.0,29.88,SW,217,4.0,9.0,57,0.00,,CLR,0.00,VWS V14.01,2013-04-11 02:24:00,
2013-04-10 22:29:00,73.8,58.1,29.89,SSW,208,5.0,9.0,58,0.00,,CLR,0.00,VWS V14.01,2013-04-11 02:29:00,
2013-04-10 22:30:00,73.8,58.1,29.89,SSW,208,5.0,9.0,58,0.00,,OVC044,0.00,VWS V14.01,2013-04-11 02:30:00,
2013-04-10 22:34:00,73.4,57.7,29.88,SSW,211,4.0,5.0,58,0.00,,CLR,0.00,VWS V14.01,2013-04-11 02:34:00,
2013-04-10 22:39:00,73.2,57.5,29.88,SSW,210,4.0,5.0,58,0.00,,CLR,0.00,VWS V14.01,2013-04-11 02:39:00,
2013-04-10 22:44:00,73.1,57.9,29.88,SSW,213,4.0,6.0,59,0.00,,CLR,0.00,VWS V14.01,2013-04-11 02:44:00,
2013-04-10 22:49:00,73.0,57.8,29.88,SW,219,4.0,6.0,59,0.00,,CLR,0.00,VWS V14.01,2013-04-11 02:49:00,
2013-04-10 22:54:00,72.9,57.8,29.88,SW,221,6.0,6.0,59,0.00,,CLR,0.00,VWS V14.01,2013-04-11 02:54:00,
2013-04-10 22:59:00,72.8,58.1,29.88,SSW,209,3.0,6.0,60,0.00,,CLR,0.00,VWS V14.01,2013-04-11 02:59:00,
2013-04-10 23:00:00,72.8,58.1,29.88,SSW,209,3.0,6.0,60,0.00,,OVC044,0.00,VWS V14.01,2013-04-11 03:00:00,
2013-04-10 23:04:00,72.6,57.9,29.88,SSW,207,3.0,6.0,60,0.00,,CLR,0.00,VWS V14.01,2013-04-11 03:04:00,
2013-04-10 23:09:00,72.6,57.9,29.88,SSW,206,4.0,6.0,60,0.00,,CLR,0.00,VWS V14.01,2013-04-11 03:09:00,
2013-04-10 23:14:00,72.5,58.3,29.88,SSW,194,4.0,6.0,61,0.00,,CLR,0.00,VWS V14.01,2013-04-11 03:14:00,
2013-04-10 23:19:00,72.3,58.1,29.89,SSW,198,3.0,6.0,61,0.00,,CLR,0.00,VWS V14.01,2013-04-11 03:19:00,
2013-04-10 23:24:00,72.2,58.0,29.89,South,188,3.0,6.0,61,0.00,,CLR,0.00,VWS V14.01,2013-04-11 03:24:00,
2013-04-10 23:29:00,72.1,57.9,29.88,SSW,202,3.0,7.0,61,0.00,,CLR,0.00,VWS V14.01,2013-04-11 03:29:00,
2013-04-10 23:30:00,72.1,57.9,29.88,South,191,6.0,7.0,61,0.00,,OVC044,0.00,VWS V14.01,2013-04-11 03:30:00,
2013-04-10 23:34:00,71.9,58.2,29.88,SSW,208,3.0,7.0,62,0.00,,CLR,0.00,VWS V14.01,2013-04-11 03:34:00,
2013-04-10 23:39:00,71.9,58.2,29.88,SSW,211,3.0,7.0,62,0.00,,CLR,0.00,VWS V14.01,2013-04-11 03:39:00,
2013-04-10 23:44:00,71.7,58.0,29.89,SW,215,4.0,7.0,62,0.00,,CLR,0.00,VWS V14.01,2013-04-11 03:44:00,
2013-04-10 23:49:00,71.4,58.2,29.88,SW,215,3.0,7.0,63,0.00,,CLR,0.00,VWS V14.01,2013-04-11 03:49:00,
2013-04-10 23:54:00,71.1,58.3,29.89,SSW,211,4.0,7.0,64,0.00,,CLR,0.00,VWS V14.01,2013-04-11 03:54:00,
2013-04-10 23:59:00,70.9,58.1,29.88,SSW,200,3.0,7.0,64,0.00,,CLR,0.00,VWS V14.01,2013-04-11 03:59:00,